Time,TemperatureF,DewpointF,PressureIn,WindDirection,WindDirectionDegrees,WindSpeedMPH,WindSpeedGustMPH,Humidity,HourlyPrecipIn,Conditions,Clouds,dailyrainin,SolarRadiationWatts/m^2,SoftwareType,DateUTC
2013-02-16 00:01:00,48.0,34.0,-100.00,SSW,209,4.0,11.0,57,0.00,,,0.00,0.000000,,2013-02-16 08:01:00,
2013-02-16 00:32:00,48.0,34.0,-100.00,SSW,213,4.0,8.0,58,-99.99,,,0.00,0.000000,,2013-02-16 08:32:00,
2013-02-16 00:42:00,48.0,34.0,-100.00,SSW,213,4.0,8.0,58,-99.99,,,0.00,0.000000,,2013-02-16 08:42:00,
2013-02-16 00:52:00,48.0,34.0,-100.00,SSW,213,4.0,8.0,58,-99.99,,,0.00,0.000000,,2013-02-16 08:52:00,
2013-02-16 01:01:00,48.0,34.0,-100.00,SSW,213,4.0,8.0,58,-99.99,,,0.00,0.000000,,2013-02-16 09:01:00,
2013-02-16 02:32:00,48.0,34.0,-100.00,SW,214,4.0,10.0,59,-99.99,,,0.00,0.000000,,2013-02-16 10:32:00,
2013-02-16 02:42:00,48.0,34.0,-100.00,SW,214,4.0,10.0,59,-99.99,,,0.00,0.000000,,2013-02-16 10:42:00,
2013-02-16 02:52:00,48.0,34.0,-100.00,SW,214,4.0,10.0,59,-99.99,,,0.00,0.000000,,2013-02-16 10:52:00,
2013-02-16 03:01:00,48.0,34.0,-100.00,SW,214,4.0,10.0,59,-99.99,,,0.00,0.000000,,2013-02-16 11:01:00,
2013-02-16 03:32:00,47.0,34.0,-100.00,SW,217,4.0,9.0,61,0.00,,,0.00,0.000000,,2013-02-16 11:32:00,
2013-02-16 03:42:00,47.0,34.0,-100.00,SW,217,4.0,9.0,61,0.00,,,0.00,0.000000,,2013-02-16 11:42:00,
2013-02-16 03:52:00,47.0,34.0,-100.00,SW,217,4.0,9.0,61,0.00,,,0.00,0.000000,,2013-02-16 11:52:00,
2013-02-16 04:01:00,47.0,34.0,-100.00,SW,217,4.0,9.0,61,0.00,,,0.00,0.000000,,2013-02-16 12:01:00,
2013-02-16 04:22:00,47.0,34.0,-100.00,SSW,206,4.0,9.0,60,0.00,,,0.00,0.000000,,2013-02-16 12:22:00,
2013-02-16 04:32:00,47.0,34.0,-100.00,SSW,206,4.0,9.0,60,0.00,,,0.00,0.000000,,2013-02-16 12:32:00,
2013-02-16 04:42:00,47.0,34.0,-100.00,SSW,206,4.0,9.0,60,0.00,,,0.00,0.000000,,2013-02-16 12:42:00,
2013-02-16 04:52:00,47.0,34.0,-100.00,SSW,206,4.0,9.0,60,0.00,,,0.00,0.000000,,2013-02-16 12:52:00,
2013-02-16 05:01:00,47.0,34.0,-100.00,SSW,206,4.0,9.0,60,0.00,,,0.00,0.000000,,2013-02-16 13:01:00,
2013-02-16 06:32:00,46.0,33.0,-100.00,SSW,203,4.0,9.0,60,-99.99,,,0.00,0.000000,,2013-02-16 14:32:00,
2013-02-16 06:42:00,46.0,33.0,-100.00,SSW,203,4.0,9.0,60,-99.99,,,0.00,0.000000,,2013-02-16 14:42:00,
2013-02-16 06:52:00,46.0,33.0,-100.00,SSW,203,4.0,9.0,60,-99.99,,,0.00,0.000000,,2013-02-16 14:52:00,
2013-02-16 07:01:00,46.0,33.0,-100.00,SSW,203,4.0,9.0,60,-99.99,,,0.00,0.000000,,2013-02-16 15:01:00,
2013-02-16 07:32:00,46.0,32.0,-100.00,SSW,198,3.0,9.0,59,0.00,,,0.00,1.000000,,2013-02-16 15:32:00,
2013-02-16 07:42:00,46.0,32.0,-100.00,SSW,198,3.0,9.0,59,0.00,,,0.00,1.000000,,2013-02-16 15:42:00,
2013-02-16 07:52:00,46.0,32.0,-100.00,SSW,198,3.0,9.0,59,0.00,,,0.00,1.000000,,2013-02-16 15:52:00,
2013-02-16 08:01:00,46.0,32.0,-100.00,SSW,198,3.0,9.0,59,0.00,,,0.00,1.000000,,2013-02-16 16:01:00,
2013-02-16 08:32:00,48.0,33.0,-100.00,SSW,204,4.0,11.0,55,0.00,,,0.00,57.000000,,2013-02-16 16:32:00,
2013-02-16 08:42:00,48.0,33.0,-100.00,SSW,204,4.0,11.0,55,0.00,,,0.00,57.000000,,2013-02-16 16:42:00,
2013-02-16 08:52:00,48.0,33.0,-100.00,SSW,204,4.0,11.0,55,0.00,,,0.00,57.000000,,2013-02-16 16:52:00,
2013-02-16 09:01:00,48.0,33.0,-100.00,SSW,204,4.0,11.0,55,0.00,,,0.00,57.000000,,2013-02-16 17:01:00,
2013-02-16 09:32:00,53.0,33.0,-100.00,SW,215,4.0,8.0,47,0.00,,,0.00,160.000000,,2013-02-16 17:32:00,
2013-02-16 09:42:00,53.0,33.0,-100.00,SW,215,4.0,8.0,47,0.00,,,0.00,160.000000,,2013-02-16 17:42:00,
2013-02-16 09:52:00,53.0,33.0,-100.00,SW,215,4.0,8.0,47,0.00,,,0.00,160.000000,,2013-02-16 17:52:00,
2013-02-16 10:01:00,53.0,33.0,-100.00,SW,215,4.0,8.0,47,0.00,,,0.00,160.000000,,2013-02-16 18:01:00,
2013-02-16 10:33:00,61.0,36.0,-100.00,SSE,164,1.0,6.0,39,0.00,,,0.00,313.000000,,2013-02-16 18:33:00,
2013-02-16 10:42:00,61.0,36.0,-100.00,SSE,164,1.0,6.0,39,0.00,,,0.00,313.000000,,2013-02-16 18:42:00,
2013-02-16 10:52:00,61.0,36.0,-100.00,SSE,164,1.0,6.0,39,0.00,,,0.00,313.000000,,2013-02-16 18:52:00,
2013-02-16 11:02:00,61.0,36.0,-100.00,SSE,164,1.0,6.0,39,0.00,,,0.00,313.000000,,2013-02-16 19:02:00,
2013-02-16 11:32:00,70.0,40.0,-100.00,SSW,196,1.0,4.0,33,0.00,,,0.00,488.000000,,2013-02-16 19:32:00,
2013-02-16 11:42:00,70.0,40.0,-100.00,SSW,196,1.0,4.0,33,0.00,,,0.00,488.000000,,2013-02-16 19:42:00,
2013-02-16 11:52:00,70.0,40.0,-100.00,SSW,196,1.0,4.0,33,0.00,,,0.00,488.000000,,2013-02-16 19:52:00,
2013-02-16 12:01:00,70.0,40.0,-100.00,SSW,196,1.0,4.0,33,0.00,,,0.00,488.000000,,2013-02-16 20:01:00,
2013-02-16 12:32:00,73.0,30.0,-100.00,ESE,110,2.0,5.0,20,0.00,,,0.00,586.000000,,2013-02-16 20:32:00,
2013-02-16 12:42:00,73.0,30.0,-100.00,ESE,110,2.0,5.0,20,0.00,,,0.00,586.000000,,2013-02-16 20:42:00,
2013-02-16 12:52:00,73.0,30.0,-100.00,ESE,110,2.0,5.0,20,0.00,,,0.00,586.000000,,2013-02-16 20:52:00,
2013-02-16 13:02:00,73.0,30.0,-100.00,ESE,110,2.0,5.0,20,0.00,,,0.00,586.000000,,2013-02-16 21:02:00,
2013-02-16 13:32:00,77.0,30.0,-100.00,East,95,2.0,6.0,18,0.00,,,0.00,564.000000,,2013-02-16 21:32:00,
2013-02-16 13:42:00,77.0,30.0,-100.00,East,95,2.0,6.0,18,0.00,,,0.00,564.000000,,2013-02-16 21:42:00,
2013-02-16 13:52:00,77.0,30.0,-100.00,East,95,2.0,6.0,18,0.00,,,0.00,564.000000,,2013-02-16 21:52:00,
2013-02-16 14:01:00,77.0,30.0,-100.00,East,95,2.0,6.0,18,0.00,,,0.00,564.000000,,2013-02-16 22:01:00,
2013-02-16 14:32:00,78.0,21.0,-100.00,SSW,209,4.0,10.0,12,0.00,,,0.00,578.000000,,2013-02-16 22:32:00,
2013-02-16 14:42:00,78.0,21.0,-100.00,SSW,209,4.0,10.0,12,0.00,,,0.00,578.000000,,2013-02-16 22:42:00,
2013-02-16 14:52:00,78.0,21.0,-100.00,SSW,209,4.0,10.0,12,0.00,,,0.00,578.000000,,2013-02-16 22:52:00,
2013-02-16 15:02:00,78.0,21.0,-100.00,SSW,209,4.0,10.0,12,0.00,,,0.00,578.000000,,2013-02-16 23:02:00,
2013-02-16 15:32:00,79.0,20.0,-100.00,SW,231,2.0,7.0,11,0.00,,,0.00,552.000000,,2013-02-16 23:32:00,
2013-02-16 15:42:00,79.0,20.0,-100.00,SW,231,2.0,7.0,11,0.00,,,0.00,552.000000,,2013-02-16 23:42:00,
2013-02-16 15:52:00,79.0,20.0,-100.00,SW,231,2.0,7.0,11,0.00,,,0.00,552.000000,,2013-02-16 23:52:00,
2013-02-16 16:01:00,79.0,20.0,-100.00,SW,231,2.0,7.0,11,0.00,,,0.00,552.000000,,2013-02-17 00:01:00,
2013-02-16 16:22:00,77.0,29.0,-100.00,NE,38,4.0,9.0,17,0.00,,,0.00,420.000000,,2013-02-17 00:22:00,
2013-02-16 16:32:00,77.0,29.0,-100.00,NE,38,4.0,9.0,17,0.00,,,0.00,420.000000,,2013-02-17 00:32:00,
2013-02-16 16:42:00,77.0,29.0,-100.00,NE,38,4.0,9.0,17,0.00,,,0.00,420.000000,,2013-02-17 00:42:00,
2013-02-16 16:52:00,77.0,29.0,-100.00,NE,38,4.0,9.0,17,0.00,,,0.00,420.000000,,2013-02-17 00:52:00,
2013-02-16 17:01:00,77.0,29.0,-100.00,NE,38,4.0,9.0,17,0.00,,,0.00,420.000000,,2013-02-17 01:01:00,
2013-02-16 17:32:00,63.0,35.0,-100.00,WSW,244,2.0,6.0,35,0.00,,,0.00,190.000000,,2013-02-17 01:32:00,
2013-02-16 17:42:00,63.0,35.0,-100.00,WSW,244,2.0,6.0,35,0.00,,,0.00,190.000000,,2013-02-17 01:42:00,
2013-02-16 17:52:00,63.0,35.0,-100.00,WSW,244,2.0,6.0,35,0.00,,,0.00,190.000000,,2013-02-17 01:52:00,
2013-02-16 18:01:00,63.0,35.0,-100.00,WSW,244,2.0,6.0,35,0.00,,,0.00,190.000000,,2013-02-17 02:01:00,
2013-02-16 18:32:00,59.0,33.0,-100.00,WSW,257,1.0,4.0,37,0.00,,,0.00,12.000000,,2013-02-17 02:32:00,
2013-02-16 18:42:00,59.0,33.0,-100.00,WSW,257,1.0,4.0,37,0.00,,,0.00,12.000000,,2013-02-17 02:42:00,
2013-02-16 18:52:00,59.0,33.0,-100.00,WSW,257,1.0,4.0,37,0.00,,,0.00,12.000000,,2013-02-17 02:52:00,
2013-02-16 19:01:00,59.0,33.0,-100.00,WSW,257,1.0,4.0,37,0.00,,,0.00,12.000000,,2013-02-17 03:01:00,
2013-02-16 19:21:00,55.0,33.0,-100.00,WSW,241,2.0,6.0,43,0.00,,,0.00,0.000000,,2013-02-17 03:21:00,
2013-02-16 19:32:00,55.0,33.0,-100.00,WSW,241,2.0,6.0,43,0.00,,,0.00,0.000000,,2013-02-17 03:32:00,
2013-02-16 19:42:00,55.0,33.0,-100.00,WSW,241,2.0,6.0,43,0.00,,,0.00,0.000000,,2013-02-17 03:42:00,
2013-02-16 19:52:00,55.0,33.0,-100.00,WSW,241,2.0,6.0,43,0.00,,,0.00,0.000000,,2013-02-17 03:52:00,
2013-02-16 20:01:00,55.0,33.0,-100.00,WSW,241,2.0,6.0,43,0.00,,,0.00,0.000000,,2013-02-17 04:01:00,
2013-02-16 20:32:00,52.0,33.0,-100.00,SW,222,3.0,6.0,48,0.00,,,0.00,0.000000,,2013-02-17 04:32:00,
2013-02-16 20:42:00,52.0,33.0,-100.00,SW,222,3.0,6.0,48,0.00,,,0.00,0.000000,,2013-02-17 04:42:00,
2013-02-16 20:52:00,52.0,33.0,-100.00,SW,222,3.0,6.0,48,0.00,,,0.00,0.000000,,2013-02-17 04:52:00,
2013-02-16 21:01:00,52.0,33.0,-100.00,SW,222,3.0,6.0,48,0.00,,,0.00,0.000000,,2013-02-17 05:01:00,
2013-02-16 21:33:00,50.0,32.0,-100.00,SSW,212,4.0,7.0,49,-99.99,,,0.00,0.000000,,2013-02-17 05:33:00,
2013-02-16 21:42:00,50.0,32.0,-100.00,SSW,212,4.0,7.0,49,-99.99,,,0.00,0.000000,,2013-02-17 05:42:00,
2013-02-16 21:52:00,50.0,32.0,-100.00,SSW,212,4.0,7.0,49,-99.99,,,0.00,0.000000,,2013-02-17 05:52:00,
2013-02-16 22:01:00,50.0,32.0,-100.00,SSW,212,4.0,7.0,49,-99.99,,,0.00,0.000000,,2013-02-17 06:01:00,
2013-02-16 22:32:00,49.0,31.0,-100.00,SW,225,3.0,8.0,49,0.00,,,0.00,0.000000,,2013-02-17 06:32:00,
2013-02-16 22:42:00,49.0,31.0,-100.00,SW,225,3.0,8.0,49,0.00,,,0.00,0.000000,,2013-02-17 06:42:00,
2013-02-16 22:52:00,49.0,31.0,-100.00,SW,225,3.0,8.0,49,0.00,,,0.00,0.000000,,2013-02-17 06:52:00,
2013-02-16 23:01:00,49.0,31.0,-100.00,SW,225,3.0,8.0,49,0.00,,,0.00,0.000000,,2013-02-17 07:01:00,
2013-02-16 23:32:00,48.0,30.0,-100.00,WSW,242,4.0,9.0,50,0.00,,,0.00,0.000000,,2013-02-17 07:32:00,
2013-02-16 23:42:00,48.0,30.0,-100.00,WSW,242,4.0,9.0,50,0.00,,,0.00,0.000000,,2013-02-17 07:42:00,
2013-02-16 23:52:00,48.0,30.0,-100.00,WSW,242,4.0,9.0,50,0.00,,,0.00,0.000000,,2013-02-17 07:52:00,